[[{"header":{"parameterUnit":"m.s-1","parameterCategory":1,"la1":30.2991,"la2":30.254,"lo1":-89.0895,"lo2":-89.0444,"dy":0.0017,"dx":0.0017,"nx":28,"ny":28,"refTime":"2023-08-29T09:00:00:Z","depth":0,"parameterNumber":2,"parameterNumberName":"U-component_of_WINDS"},"data":[0,0,0,0,0,0,0,0,0,0,0,0,0,0,0,0,0,0,0,0,0,0,0,0,0,0,0,0,0,0,0,0,0,0,0,0,0,0,0,0,0,0,0,0,0,0,0,0,0,0,0,0,0,0,0,0,0,0,-2.414,-2.414,0,-2.4167,-2.4167,-2.4168,-2.4097,-2.4095,-2.4093,-2.4091,-2.4119,-2.4122,-2.4125,0,0,0,0,0,0,0,0,0,0,0,0,0,-2.4026,-2.4029,-2.414,-2.414,-2.414,-2.4167,-2.4167,-2.4168,-2.4098,-2.4095,-2.4092,-2.409,-2.4118,-2.4121,-2.4125,0,0,0,0,0,0,0,0,0,0,0,0,0,-2.4067,-2.403,-2.4139,-2.4108,-2.4106,-2.4167,-2.4167,-2.4168,-2.4098,-2.4095,-2.4091,-2.4088,-2.4117,-2.4121,-2.4125,-2.4218,0,0,-2.4138,-2.414,0,0,0,0,0,0,0,0,-2.4065,-2.4071,-2.4113,-2.4111,-2.4108,-2.4125,-2.4138,-2.4185,-2.4099,-2.4101,-2.4091,-2.4087,-2.4124,-2.4127,-2.414,-2.4219,-2.422,-2.4139,-2.4141,-2.4143,-2.4144,0,0,0,0,0,0,0,-2.4062,-2.407,-2.415,-2.4113,-2.411,-2.4093,-2.4095,-2.4146,-2.4131,-2.4101,-2.4096,-2.41,-2.4122,-2.4136,-2.414,-2.4221,-2.4139,-2.4142,-2.4145,-2.4147,-2.4379,-2.4382,0,0,0,0,0,0,-2.4063,-2.4068,-2.415,-2.4151,-2.4078,-2.4098,-2.41,-2.4123,-2.413,-2.4128,-2.4103,-2.4096,-2.413,-2.4135,-2.4141,-2.425,-2.4143,-2.4147,-2.4149,-2.4375,-2.438,-2.4384,0,0,0,0,0,0,-2.4061,-2.4071,-2.4148,-2.4108,-2.4117,-2.4103,-2.413,-2.4125,-2.4139,-2.4131,-2.4128,-2.412,-2.4128,-2.4135,-2.4199,-2.425,-2.4149,-2.4153,-2.4371,-2.4377,-2.4382,-2.447,0,0,0,0,0,0,-2.4058,-2.4071,-2.4106,-2.4109,-2.4119,-2.4207,-2.4133,-2.4128,-2.4147,-2.4139,-2.4147,-2.4145,-2.4126,-2.4194,-2.4204,-2.4254,-2.4156,-2.4366,-2.4373,-2.438,-2.4463,-2.4478,-2.4491,0,0,0,0,0,-2.4054,-2.413,-2.4108,-2.4118,-2.4163,-2.421,-2.4215,-2.4192,-2.4151,-2.4186,-2.4181,-2.4145,-2.4243,-2.4201,-2.4212,-2.4264,-2.4363,-2.4371,-2.4379,-2.4456,-2.4475,-2.4491,0,0,0,0,0,0,-2.4132,-2.4129,-2.4105,-2.4184,-2.4198,-2.4198,-2.4242,-2.4212,-2.4238,-2.423,-2.4199,-2.4202,-2.4273,-2.4274,-2.4228,-2.4355,-2.4296,-2.4307,-2.4351,-2.4369,-2.4383,-2.4381,-2.416,0,0,0,0,0,-2.4158,-2.4197,-2.4193,-2.4262,-2.4271,-2.4255,-2.4275,-2.4256,-2.4269,-2.4274,-2.4274,-2.4288,-2.4322,-2.4345,-2.4376,-2.4462,-2.4464,-2.4504,-2.4518,-2.453,-2.454,-2.4587,-2.4605,-2.441,-2.441,-2.441,0,0,-2.4213,-2.4216,-2.4243,-2.4278,-2.4287,-2.4328,-2.4261,-2.4307,-2.4337,-2.4281,-2.4343,-2.4343,-2.4357,-2.4433,-2.4467,-2.4437,-2.4594,-2.4541,-2.455,-2.4554,-2.4597,-2.4616,-2.4632,-2.4416,-2.4415,-2.4414,0,0,-2.4334,-2.434,-2.44,-2.4409,-2.4423,-2.4412,-2.4427,-2.4432,-2.443,-2.4491,-2.445,-2.4486,-2.4545,-2.4557,-2.4571,-2.4697,-2.4664,-2.4708,-2.4782,-2.4828,-2.4844,-2.4857,-2.4904,-2.492,-2.4717,-2.4718,-2.4718,0,-2.4401,-2.4461,-2.4434,-2.4483,-2.45,-2.4451,-2.4512,-2.4522,-2.4546,-2.4559,-2.4525,-2.4599,-2.4605,-2.4684,-2.4715,-2.4727,-2.4743,-2.4707,-2.4844,-2.4857,-2.4869,-2.4913,-2.493,-2.4723,-2.4722,-2.4722,-2.4721,0,-2.4542,-2.4585,-2.4631,-2.4655,-2.4677,-2.4732,-2.4713,-2.4739,-2.4718,-2.4711,-2.4774,-2.4779,-2.4811,-2.4828,-2.4808,-2.4905,-2.4886,-2.4849,-2.4789,-2.4894,-2.4934,-2.4951,-2.473,-2.4729,-2.4727,-2.4726,0,0,-2.4714,-2.4722,-2.474,-2.475,-2.4762,-2.4794,-2.4847,-2.4878,-2.4901,-2.4918,-2.4962,-2.5014,-2.498,-2.4995,-2.4976,-2.5016,-2.5117,-2.4974,-2.4974,-2.5001,-2.5226,-2.5255,-2.5275,-2.5095,-2.5098,-2.5101,-2.5225,0,-2.4834,-2.4924,-2.4902,-2.4991,-2.5031,-2.4985,-2.5031,-2.5043,-2.5038,-2.5071,-2.5065,-2.5103,-2.5054,-2.5063,-2.5101,-2.5097,-2.5162,-2.5088,-2.5137,-2.5139,-2.5136,-2.5295,-2.5326,-2.5443,-2.5241,-2.5243,-2.5245,0,-2.4987,-2.5011,-2.5105,-2.511,-2.5126,-2.5168,-2.5195,-2.5226,-2.524,-2.5233,-2.5251,-2.5224,-2.5276,-2.5216,-2.5288,-2.5238,-2.5257,-2.5258,-2.5262,-2.5266,-2.5199,-2.5306,-2.5479,-2.5498,-2.527,-2.5268,-2.5266,0,-2.5104,-2.5159,-2.5223,-2.5233,-2.5241,-2.5272,-2.5277,-2.5286,-2.5307,-2.533,-2.5343,-2.5373,-2.5389,-2.5413,-2.5394,-2.5352,-2.547,-2.5408,-2.5467,-2.5468,-2.5495,-2.5494,-2.5676,-2.5505,-2.5505,-2.5505,-2.5504,0,-2.5241,-2.5301,-2.5276,-2.5315,-2.5381,-2.5354,-2.5419,-2.5419,-2.5428,-2.5467,-2.5429,-2.5466,-2.5439,-2.5474,-2.546,-2.5523,-2.553,-2.5527,-2.5523,-2.5531,-2.5532,-2.5544,-2.5535,-2.5509,-2.5508,-2.5507,-2.5507,0,-2.5384,-2.5369,-2.5436,-2.5438,-2.544,-2.5488,-2.549,-2.5527,-2.5519,-2.5568,-2.5579,-2.5566,-2.5606,-2.5589,-2.5631,-2.5621,-2.5702,-2.5687,-2.5698,-2.5695,-2.5755,-2.575,-2.5952,-2.5978,-2.579,-2.5792,-2.5793,0,-2.5473,-2.5518,-2.5525,-2.5548,-2.5556,-2.5594,-2.5614,-2.559,-2.5613,-2.5632,-2.5666,-2.5702,-2.573,-2.5795,-2.579,-2.5822,-2.5808,-2.5876,-2.5812,-2.582,-2.581,-2.5808,-2.5813,-2.589,-2.5892,-2.5893,-2.5895,0,-2.5634,-2.5624,-2.5655,-2.5685,-2.571,-2.5732,-2.575,-2.5772,-2.5748,-2.5776,-2.5816,-2.5837,-2.588,-2.5917,-2.5945,-2.595,-2.592,-2.5915,-2.5931,-2.594,-2.5946,-2.5945,-2.5734,-2.5911,-2.5909,-2.5908,-2.5907,-2.5906,-2.5753,-2.5791,-2.5802,-2.5839,-2.585,-2.5868,-2.5903,-2.5899,-2.5932,-2.5965,-2.5948,-2.5995,-2.6008,-2.6043,-2.6052,-2.6089,-2.6062,-2.6084,-2.609,-2.6096,-2.6105,-2.5939,-2.6093,-2.6093,-2.6093,-2.6092,-2.6092,0,-2.5913,-2.5918,-2.5951,-2.5978,-2.6007,-2.5975,-2.5994,-2.602,-2.6062,-2.6076,-2.6104,-2.615,-2.6186,-2.6184,-2.6217,-2.6247,-2.6233,-2.6256,-2.6254,-2.6256,-2.6126,-2.611,-2.6266,-2.6266,-2.6266,-2.6266,-2.6266,-2.6266,-2.5999,-2.6062,-2.6055,-2.6123,-2.6127,-2.6173,-2.6186,-2.6203,-2.6215,-2.6268,-2.6297,-2.6296,-2.6304,-2.6337,-2.6369,-2.6367,-2.6382,-2.641,-2.6404,-2.6282,-2.6265,-2.6249,-2.6233,-2.6413,-2.6413,-2.6531,-2.6532,-2.6533]},{"header":{"parameterUnit":"m.s-1","parameterCategory":1,"la1":30.2991,"la2":30.254,"lo1":-89.0895,"lo2":-89.0444,"dy":0.0017,"dx":0.0017,"nx":28,"ny":28,"refTime":"2023-08-29T09:00:00:Z","depth":0,"parameterNumber":3,"parameterNumberName":"V-component_of_WINDS"},"data":[0,0,0,0,0,0,0,0,0,0,0,0,0,0,0,0,0,0,0,0,0,0,0,0,0,0,0,0,0,0,0,0,0,0,0,0,0,0,0,0,0,0,0,0,0,0,0,0,0,0,0,0,0,0,0,0,0,0,-2.6483,-2.6483,0,-2.6476,-2.6476,-2.6476,-2.6472,-2.6472,-2.6472,-2.6472,-2.6463,-2.6463,-2.6463,0,0,0,0,0,0,0,0,0,0,0,0,0,-2.6493,-2.6492,-2.6483,-2.6483,-2.6483,-2.6476,-2.6476,-2.6476,-2.6472,-2.6472,-2.6472,-2.6472,-2.6463,-2.6463,-2.6463,0,0,0,0,0,0,0,0,0,0,0,0,0,-2.6487,-2.6492,-2.6483,-2.648,-2.648,-2.6476,-2.6476,-2.6475,-2.6472,-2.6472,-2.6472,-2.6472,-2.6463,-2.6463,-2.6463,-2.6461,0,0,-2.6462,-2.6462,0,0,0,0,0,0,0,0,-2.6487,-2.6487,-2.6481,-2.648,-2.648,-2.6475,-2.6476,-2.6471,-2.6472,-2.6475,-2.6472,-2.6472,-2.6467,-2.6466,-2.6465,-2.646,-2.646,-2.6462,-2.6462,-2.6461,-2.6461,0,0,0,0,0,0,0,-2.6488,-2.6487,-2.648,-2.6481,-2.648,-2.6479,-2.6478,-2.6475,-2.6471,-2.6474,-2.6474,-2.6473,-2.6467,-2.6465,-2.6465,-2.646,-2.6462,-2.6461,-2.6461,-2.6461,-2.6453,-2.6453,0,0,0,0,0,0,-2.6489,-2.6487,-2.648,-2.648,-2.6484,-2.6479,-2.6478,-2.6476,-2.6471,-2.647,-2.6473,-2.6473,-2.6466,-2.6465,-2.6464,-2.6462,-2.6461,-2.6461,-2.6461,-2.6453,-2.6453,-2.6453,0,0,0,0,0,0,-2.6489,-2.6488,-2.6481,-2.6484,-2.6483,-2.6478,-2.6477,-2.6476,-2.6475,-2.647,-2.6469,-2.6473,-2.6466,-2.6465,-2.6462,-2.6461,-2.6461,-2.6461,-2.6453,-2.6453,-2.6453,-2.6456,0,0,0,0,0,0,-2.6489,-2.6488,-2.6488,-2.6484,-2.6482,-2.6478,-2.6477,-2.6476,-2.6474,-2.6474,-2.6469,-2.6469,-2.6466,-2.6462,-2.6461,-2.6461,-2.646,-2.6453,-2.6453,-2.6453,-2.6456,-2.6456,-2.6457,0,0,0,0,0,-2.649,-2.6489,-2.6488,-2.6487,-2.6482,-2.6478,-2.6478,-2.6475,-2.6474,-2.6474,-2.6471,-2.6469,-2.6462,-2.6462,-2.6461,-2.646,-2.6453,-2.6453,-2.6453,-2.6456,-2.6456,-2.6457,0,0,0,0,0,0,-2.6493,-2.6488,-2.6487,-2.6485,-2.6482,-2.6478,-2.6477,-2.6475,-2.6472,-2.6472,-2.6468,-2.6467,-2.6464,-2.6462,-2.6463,-2.6458,-2.6457,-2.6457,-2.646,-2.646,-2.646,-2.6461,-2.646,0,0,0,0,0,-2.6494,-2.6492,-2.6487,-2.6486,-2.6485,-2.6481,-2.6479,-2.6477,-2.6474,-2.6473,-2.647,-2.6466,-2.6463,-2.6462,-2.6458,-2.6456,-2.6455,-2.6455,-2.6455,-2.6455,-2.6455,-2.6453,-2.6453,-2.6453,-2.6453,-2.6453,0,0,-2.6495,-2.6492,-2.6491,-2.6487,-2.6484,-2.6482,-2.648,-2.6478,-2.6476,-2.6473,-2.6469,-2.6467,-2.6463,-2.646,-2.6458,-2.6458,-2.6455,-2.6455,-2.6455,-2.6455,-2.6453,-2.6453,-2.6453,-2.6453,-2.6453,-2.6453,0,0,-2.6495,-2.6493,-2.6492,-2.6489,-2.6486,-2.6483,-2.6483,-2.6479,-2.6477,-2.6474,-2.6471,-2.6469,-2.6463,-2.6461,-2.6459,-2.6458,-2.6456,-2.6457,-2.6458,-2.6456,-2.6456,-2.6456,-2.6455,-2.6455,-2.6457,-2.6457,-2.6457,0,-2.6497,-2.6494,-2.6491,-2.6489,-2.6487,-2.6484,-2.6482,-2.648,-2.6475,-2.6474,-2.6473,-2.6467,-2.6464,-2.646,-2.646,-2.6458,-2.6457,-2.6457,-2.6456,-2.6456,-2.6456,-2.6456,-2.6455,-2.6457,-2.6457,-2.6457,-2.6457,0,-2.6496,-2.6494,-2.6493,-2.6489,-2.6487,-2.6485,-2.6481,-2.6479,-2.6477,-2.6475,-2.6471,-2.6468,-2.6464,-2.6463,-2.6461,-2.6459,-2.6458,-2.6457,-2.6456,-2.6456,-2.6456,-2.6456,-2.6457,-2.6457,-2.6457,-2.6457,0,0,-2.6499,-2.6493,-2.6493,-2.6491,-2.6486,-2.6484,-2.6482,-2.6478,-2.6477,-2.6474,-2.6471,-2.6467,-2.6466,-2.6463,-2.6461,-2.6459,-2.6459,-2.6458,-2.6458,-2.6458,-2.6456,-2.6457,-2.6457,-2.6457,-2.6457,-2.6457,-2.6456,0,-2.6499,-2.6495,-2.6492,-2.6489,-2.6487,-2.6484,-2.6482,-2.6478,-2.6476,-2.6473,-2.647,-2.6467,-2.6466,-2.6464,-2.6463,-2.6459,-2.6458,-2.6459,-2.6455,-2.6455,-2.6456,-2.6456,-2.6457,-2.6456,-2.6456,-2.6456,-2.6456,0,-2.6498,-2.6496,-2.6492,-2.6488,-2.6487,-2.6485,-2.6482,-2.6479,-2.6475,-2.6474,-2.6471,-2.6468,-2.6465,-2.6464,-2.646,-2.6461,-2.6459,-2.6457,-2.6456,-2.6456,-2.6455,-2.6456,-2.6456,-2.6456,-2.6455,-2.6455,-2.6455,0,-2.6501,-2.6496,-2.6493,-2.6492,-2.6487,-2.6486,-2.6483,-2.648,-2.6478,-2.6474,-2.6473,-2.6469,-2.6467,-2.6464,-2.646,-2.646,-2.6456,-2.6455,-2.6454,-2.6454,-2.6453,-2.6453,-2.6453,-2.6452,-2.6452,-2.6452,-2.6452,0,-2.6501,-2.6499,-2.6494,-2.6493,-2.6491,-2.6487,-2.6485,-2.6482,-2.6479,-2.6476,-2.6473,-2.6471,-2.6466,-2.6463,-2.646,-2.6457,-2.6456,-2.6454,-2.6453,-2.6454,-2.6455,-2.6453,-2.6453,-2.6452,-2.6452,-2.6452,-2.6452,0,-2.6503,-2.65,-2.6497,-2.6493,-2.6491,-2.649,-2.6486,-2.6484,-2.6481,-2.6478,-2.6477,-2.6472,-2.6469,-2.6465,-2.6459,-2.6457,-2.6454,-2.6453,-2.6455,-2.6455,-2.6454,-2.6454,-2.6453,-2.6453,-2.6452,-2.6452,-2.6452,0,-2.6504,-2.6502,-2.6498,-2.6496,-2.6494,-2.6491,-2.6489,-2.6485,-2.6483,-2.6479,-2.6477,-2.6473,-2.647,-2.6464,-2.646,-2.6456,-2.6454,-2.6454,-2.6454,-2.6455,-2.6454,-2.6454,-2.6454,-2.6454,-2.6455,-2.6455,-2.6455,0,-2.6505,-2.6503,-2.6501,-2.6497,-2.6495,-2.6492,-2.6489,-2.6488,-2.6483,-2.6481,-2.6477,-2.6475,-2.6469,-2.6465,-2.6461,-2.6458,-2.6455,-2.6455,-2.6454,-2.6455,-2.6457,-2.6456,-2.6456,-2.6455,-2.6455,-2.6455,-2.6455,-2.6455,-2.6506,-2.6505,-2.6501,-2.6498,-2.6495,-2.6493,-2.6491,-2.6488,-2.6485,-2.648,-2.6478,-2.6474,-2.647,-2.6463,-2.6461,-2.6457,-2.6457,-2.6456,-2.6456,-2.6456,-2.6456,-2.6457,-2.6456,-2.6456,-2.6456,-2.6456,-2.6456,0,-2.6507,-2.6505,-2.6502,-2.6498,-2.6495,-2.6494,-2.649,-2.6488,-2.6485,-2.6481,-2.6478,-2.6473,-2.6469,-2.6465,-2.6461,-2.6459,-2.6457,-2.6458,-2.6458,-2.6457,-2.6457,-2.6458,-2.6459,-2.6459,-2.6459,-2.6459,-2.6459,-2.6459,-2.6507,-2.6505,-2.6503,-2.6498,-2.6496,-2.6492,-2.6491,-2.6488,-2.6485,-2.648,-2.6477,-2.6474,-2.647,-2.6465,-2.6461,-2.646,-2.6458,-2.6459,-2.6457,-2.6457,-2.6457,-2.6457,-2.6458,-2.6459,-2.6459,-2.6458,-2.6458,-2.6458]}]]